Weather History for KSVN - September, 2013

Change the Weather History Date:

Sunday, September 29, 2013

  Actual Average Record
Temperature  
Mean Temperature 70 °F -  
Max Temperature 80 °F 80 °F 89 °F (2005)
Min Temperature 61 °F 63 °F 57 °F (2003)
Cooling Degree Days 6    
Growing Degree Days 20 (Base 50)    
Moisture  
Dew Point 60 °F    
Average Humidity 71    
Maximum Humidity 90    
Minimum Humidity 48    
Precipitation  
Precipitation 0.00 in - - ()
Sea Level Pressure  
Sea Level Pressure 30.05 in    
Wind  
Wind Speed 7 mph (NE)    
Max Wind Speed 10 mph    
Max Gust Speed -    
Visibility 10 miles    
Events      
Averages and records for this station are not official NWS values.
T = Trace of Precipitation, MM = Missing Value Source: NWS Daily Summary

Daily Weather History Graph

Daily Weather History Graph

Search for Another Location

Airport or City:

Trip Planner

Search our weather history database for the weather conditions in past years. The results will help you decide how hot, cold, wet, or windy it might be!

Date:

Astronomy

Sep. 29, 2013 Rise Set
Actual Time 7:17 AM EDT 7:11 PM EDT
Civil Twilight 6:52 AM EDT 7:36 PM EDT
Nautical Twilight 6:24 AM EDT 8:04 PM EDT
Astronomical Twilight 5:56 AM EDT 8:32 PM EDT
Moon 2:13 AM EDT (9/29) 3:52 PM EDT (9/29)
Length of Visible Light 12h 43m
Length of Day
11h 54m
Waning Crescent, 27% of the Moon is Illuminated
Sep 29
Waning Crescent
Oct 4
New
Oct 11
First Quarter
Oct 18
Full
Oct 26
Last Quarter

Hourly Weather History & Observations

Time (EDT) Temp. Heat Index Dew Point Humidity Pressure Visibility Wind Dir Wind Speed Gust Speed Precip Events Conditions
12:58 AM 68.0 °F - 60.6 °F 77% 30.08 in 10.0 mi NNE 5.8 mph - N/A   Clear
1:58 AM 67.1 °F - 60.3 °F 79% 30.08 in 10.0 mi NE 4.6 mph - N/A   Clear
2:58 AM 67.3 °F - 59.9 °F 77% 30.06 in 10.0 mi NNE 5.8 mph - N/A   Overcast
3:58 AM 64.9 °F - 59.5 °F 83% 30.06 in 10.0 mi North 5.8 mph - N/A   Clear
4:58 AM 63.7 °F - 59.0 °F 85% 30.05 in 10.0 mi North 6.9 mph - N/A   Clear
5:58 AM 62.6 °F - 58.8 °F 87% 30.06 in 10.0 mi North 6.9 mph - N/A   Clear
6:58 AM 61.7 °F - 58.5 °F 89% 30.08 in 10.0 mi North 5.8 mph - N/A   Clear
7:58 AM 62.1 °F - 58.8 °F 89% 30.08 in 10.0 mi North 8.1 mph - N/A   Clear
8:58 AM 65.7 °F - 60.1 °F 82% 30.08 in 10.0 mi North 8.1 mph - N/A   Clear
9:58 AM 69.6 °F - 60.6 °F 73% 30.08 in 10.0 mi North 10.4 mph - N/A   Clear
10:58 AM 74.5 °F - 59.7 °F 60% 30.08 in 10.0 mi NNE 10.4 mph - N/A   Clear
11:58 AM 77.5 °F - 59.7 °F 54% 30.07 in 10.0 mi NNE 8.1 mph - N/A   Clear
12:58 PM 79.2 °F - 58.8 °F 50% 30.06 in 10.0 mi North 9.2 mph - N/A   Clear
1:58 PM 80.4 °F 81.0 °F 59.0 °F 48% 30.04 in 10.0 mi ENE 8.1 mph - N/A   Partly Cloudy
2:58 PM 77.2 °F - 59.0 °F 53% 30.01 in 10.0 mi East 10.4 mph - N/A   Scattered Clouds
3:58 PM 79.7 °F - 60.3 °F 51% 30.00 in 10.0 mi East 6.9 mph - N/A   Scattered Clouds
4:58 PM 77.2 °F - 60.3 °F 56% 29.99 in 10.0 mi East 9.2 mph - N/A   Mostly Cloudy
5:58 PM 74.7 °F - 60.1 °F 60% 30.00 in 10.0 mi East 8.1 mph - N/A   Mostly Cloudy
6:58 PM 72.1 °F - 60.4 °F 67% 30.00 in 10.0 mi East 6.9 mph - N/A   Partly Cloudy
7:58 PM 69.8 °F - 60.6 °F 73% 30.02 in 10.0 mi ENE 3.5 mph - N/A   Clear
8:58 PM 68.5 °F - 60.6 °F 76% 30.03 in 10.0 mi ENE 4.6 mph - N/A   Clear
9:58 PM 68.4 °F - 60.3 °F 75% 30.03 in 10.0 mi ENE 5.8 mph - N/A   Clear
10:58 PM 66.7 °F - 59.7 °F 78% 30.04 in 10.0 mi ENE 3.5 mph - N/A   Clear
11:58 PM 62.4 °F - 59.5 °F 90% 30.03 in 10.0 mi Calm Calm - N/A   Clear